Le Mars, IA

4:13 AM CDT on September 15, 2019 (GMT -0500)
Le Mars Municipal

Weather History for KLRJ - July, 2019

Change the Weather History Date:

Wednesday, July 31, 2019

  Actual Average Record
Temperature  
Mean Temperature 68 °F -  
Max Temperature 73 °F 85 °F 102 °F (1988)
Min Temperature 62 °F 62 °F 46 °F (1971)
Cooling Degree Days 2    
Growing Degree Days 18 (Base 50)    
Moisture  
Dew Point 64 °F    
Average Humidity 91    
Maximum Humidity 100    
Minimum Humidity 83    
Precipitation  
Precipitation 0.16 in - - ()
Sea Level Pressure  
Sea Level Pressure 30.11 in    
Wind  
Wind Speed 9 mph (SE)    
Max Wind Speed 16 mph    
Max Gust Speed 21 mph    
Visibility 9 miles    
Events Rain    
Averages and records for this station are not official NWS values.
T = Trace of Precipitation, MM = Missing Value Source: NWS Daily Summary

Daily Weather History Graph

Daily Weather History Graph

Search for Another Location

Airport or City:

Astronomy

Jul. 31, 2019 Rise Set
Actual Time 6:14 AM CDT 8:46 PM CDT
Civil Twilight 5:42 AM CDT 9:18 PM CDT
Nautical Twilight 5:02 AM CDT 9:58 PM CDT
Astronomical Twilight 4:17 AM CDT 10:43 PM CDT
Moon 5:27 AM CDT (7/31) 8:47 PM CDT (7/31)
Length of Visible Light 15h 36m
Length of Day
14h 31m
Waning Crescent, 0% of the Moon is Illuminated
Jul 31
Waning Crescent
Jul 31
New
Aug 7
First Quarter
Aug 15
Full
Aug 23
Last Quarter

Hourly Weather History & Observations

Time (CDT) Temp. Dew Point Humidity Pressure Visibility Wind Dir Wind Speed Gust Speed Precip Events Conditions
12:15 AM 64.4 °F 59.0 °F 83% 30.11 in 10.0 mi East 5.8 mph - N/A   Overcast
12:35 AM 64.4 °F 59.0 °F 83% 30.11 in 8.0 mi ESE 6.9 mph - N/A   Overcast
12:55 AM 64.4 °F 59.0 °F 83% 30.11 in 10.0 mi ESE 6.9 mph - N/A   Overcast
1:15 AM 64.4 °F 59.0 °F 83% 30.11 in 10.0 mi ESE 6.9 mph - N/A   Overcast
1:35 AM 64.4 °F 60.8 °F 88% 30.10 in 10.0 mi ESE 9.2 mph - N/A   Overcast
1:55 AM 64.4 °F 60.8 °F 88% 30.10 in 10.0 mi ESE 9.2 mph - N/A   Overcast
2:15 AM 64.4 °F 60.8 °F 88% 30.11 in 10.0 mi SE 5.8 mph - N/A   Overcast
2:35 AM 64.4 °F 60.8 °F 88% 30.10 in - ESE 4.6 mph - N/A   Overcast
2:55 AM 64.4 °F 62.6 °F 94% 30.10 in 10.0 mi ESE 6.9 mph - N/A   Overcast
3:15 AM 64.4 °F 60.8 °F 88% 30.10 in 10.0 mi SE 6.9 mph - N/A   Overcast
3:35 AM 64.4 °F 60.8 °F 88% 30.10 in 10.0 mi ESE 8.1 mph - N/A   Overcast
3:55 AM 64.4 °F 60.8 °F 88% 30.09 in 10.0 mi ESE 10.4 mph - N/A   Overcast
4:15 AM 64.4 °F 60.8 °F 88% 30.09 in 10.0 mi ESE 10.4 mph 16.1 mph N/A   Overcast
4:35 AM 64.4 °F 60.8 °F 88% 30.10 in 10.0 mi East 10.4 mph - N/A   Mostly Cloudy
4:55 AM 66.2 °F 60.8 °F 83% 30.10 in 10.0 mi East 13.8 mph - N/A   Overcast
5:15 AM 66.2 °F 60.8 °F 83% 30.10 in 10.0 mi East 13.8 mph - N/A   Overcast
5:35 AM 66.2 °F 60.8 °F 83% 30.10 in 10.0 mi ESE 11.5 mph 18.4 mph N/A   Mostly Cloudy
5:55 AM 64.4 °F 60.8 °F 88% 30.09 in 10.0 mi ESE 10.4 mph 16.1 mph N/A   Mostly Cloudy
6:15 AM 64.4 °F 60.8 °F 88% 30.10 in 10.0 mi ESE 10.4 mph - N/A   Mostly Cloudy
6:35 AM 64.4 °F 60.8 °F 88% 30.10 in 10.0 mi SE 8.1 mph - N/A   Overcast
7:15 AM 66.2 °F 60.8 °F 83% 30.10 in 10.0 mi SE 5.8 mph 12.7 mph N/A   Overcast
7:35 AM 64.4 °F 62.6 °F 94% 30.12 in 1.5 mi SE 8.1 mph - N/A Rain Heavy Rain
7:55 AM 62.6 °F 62.6 °F 100% 30.13 in 1.2 mi SE 6.9 mph 12.7 mph 0.04 in Rain Heavy Rain
8:15 AM 62.6 °F 62.6 °F 100% 30.11 in 1.0 mi SE 13.8 mph 20.7 mph N/A Rain Light Rain
8:35 AM 62.6 °F 62.6 °F 100% 30.11 in 1.5 mi ESE 10.4 mph 17.3 mph N/A Rain Heavy Rain
8:55 AM 62.6 °F 62.6 °F 100% 30.11 in 5.0 mi SE 6.9 mph - 0.08 in Rain Light Rain
9:35 AM 64.4 °F 64.4 °F 100% 30.12 in 10.0 mi SSE 8.1 mph - N/A   Overcast
9:55 AM 64.4 °F 64.4 °F 100% 30.13 in 10.0 mi SE 8.1 mph - 0.03 in   Overcast
10:15 AM 64.4 °F 64.4 °F 100% 30.13 in 10.0 mi SSE 6.9 mph - N/A   Overcast
10:35 AM 66.2 °F 64.4 °F 94% 30.12 in 10.0 mi SSE 8.1 mph - N/A   Overcast
10:55 AM 66.2 °F 64.4 °F 94% 30.11 in 10.0 mi SE 6.9 mph - N/A   Mostly Cloudy
11:15 AM 66.2 °F 64.4 °F 94% 30.08 in 10.0 mi SE 13.8 mph 19.6 mph N/A   Mostly Cloudy
11:35 AM 66.2 °F 66.2 °F 100% 30.09 in 10.0 mi SSE 11.5 mph 19.6 mph N/A   Mostly Cloudy
11:55 AM 68.0 °F 66.2 °F 94% 30.09 in 10.0 mi SSE 10.4 mph 16.1 mph N/A   Overcast
12:15 PM 68.0 °F 66.2 °F 94% 30.10 in 10.0 mi SE 12.7 mph - N/A   Mostly Cloudy
12:35 PM 68.0 °F 66.2 °F 94% 30.09 in 10.0 mi SE 13.8 mph - N/A   Overcast
12:55 PM 68.0 °F 66.2 °F 94% 30.10 in 10.0 mi SE 10.4 mph 16.1 mph N/A   Overcast
1:15 PM 68.0 °F 66.2 °F 94% 30.11 in 10.0 mi Variable 4.6 mph 11.5 mph N/A   Overcast
1:35 PM 68.0 °F 66.2 °F 94% 30.10 in 10.0 mi SE 11.5 mph - N/A   Overcast
1:55 PM 68.0 °F 66.2 °F 94% 30.10 in 4.0 mi East 10.4 mph - N/A Rain Light Rain
2:15 PM 68.0 °F 68.0 °F 100% 30.11 in 10.0 mi ESE 6.9 mph - N/A   Mostly Cloudy
2:35 PM 68.0 °F 68.0 °F 100% 30.11 in 10.0 mi SE 9.2 mph - N/A   Overcast
2:55 PM 69.8 °F 68.0 °F 94% 30.11 in 10.0 mi SE 6.9 mph 13.8 mph 0.01 in   Overcast
3:15 PM 69.8 °F 66.2 °F 88% 30.12 in 10.0 mi SE 11.5 mph - N/A   Overcast
3:35 PM 69.8 °F 68.0 °F 94% 30.10 in 10.0 mi SE 11.5 mph - N/A   Mostly Cloudy
3:55 PM 71.6 °F 68.0 °F 88% 30.11 in 10.0 mi ESE 9.2 mph 15.0 mph N/A   Mostly Cloudy
4:15 PM 71.6 °F 68.0 °F 88% 30.11 in 10.0 mi SE 5.8 mph 12.7 mph N/A   Overcast
4:35 PM 71.6 °F 68.0 °F 88% 30.11 in 10.0 mi SE 11.5 mph - N/A   Overcast
4:55 PM 71.6 °F 68.0 °F 88% 30.11 in 10.0 mi SE 10.4 mph 17.3 mph N/A   Overcast
5:15 PM 71.6 °F 66.2 °F 83% 30.11 in 10.0 mi ESE 13.8 mph - N/A   Overcast
5:35 PM 73.4 °F 68.0 °F 83% 30.11 in 10.0 mi ESE 9.2 mph - N/A   Overcast
5:55 PM 73.4 °F 68.0 °F 83% 30.11 in 10.0 mi ESE 11.5 mph 17.3 mph N/A   Overcast
6:15 PM 71.6 °F 68.0 °F 88% 30.11 in 10.0 mi SSE 13.8 mph - N/A   Overcast
6:35 PM 71.6 °F 66.2 °F 83% 30.10 in 10.0 mi SSE 16.1 mph - N/A   Mostly Cloudy
6:55 PM 71.6 °F 66.2 °F 83% 30.10 in 10.0 mi South 16.1 mph - N/A   Mostly Cloudy
7:15 PM 69.8 °F 66.2 °F 88% 30.11 in 10.0 mi SSE 15.0 mph - N/A   Overcast
7:35 PM 69.8 °F 66.2 °F 88% 30.11 in 10.0 mi SSE 12.7 mph - N/A   Overcast
7:55 PM 69.8 °F 66.2 °F 88% 30.10 in 10.0 mi SE 6.9 mph 13.8 mph N/A   Overcast
8:15 PM 69.8 °F 66.2 °F 88% 30.11 in 10.0 mi East 9.2 mph - N/A   Overcast
8:35 PM 69.8 °F 66.2 °F 88% 30.10 in 10.0 mi ESE 10.4 mph - N/A   Overcast
8:55 PM 68.0 °F 66.2 °F 94% 30.10 in 10.0 mi ESE 9.2 mph - N/A   Overcast
9:15 PM 68.0 °F 66.2 °F 94% 30.10 in 10.0 mi ESE 5.8 mph - N/A   Mostly Cloudy
9:35 PM 68.0 °F 66.2 °F 94% 30.11 in 10.0 mi East 9.2 mph - N/A   Overcast
9:55 PM 66.2 °F 66.2 °F 100% 30.11 in 10.0 mi East 10.4 mph - N/A   Overcast
10:15 PM 68.0 °F 66.2 °F 94% 30.11 in 10.0 mi East 9.2 mph - N/A   Overcast
10:35 PM 68.0 °F 66.2 °F 94% 30.10 in 10.0 mi ESE 8.1 mph - N/A   Overcast
10:55 PM 68.0 °F 66.2 °F 94% 30.11 in 10.0 mi ESE 8.1 mph - N/A   Overcast
11:15 PM 66.2 °F 66.2 °F 100% 30.11 in 10.0 mi East 10.4 mph - N/A   Overcast
11:35 PM 66.2 °F 66.2 °F 100% 30.11 in - East 6.9 mph - N/A   Overcast
11:55 PM 66.2 °F 66.2 °F 100% 30.11 in 10.0 mi East 8.1 mph - N/A   Overcast